30.06.2024;16:00;9
30.06.2024;15:00;6
30.06.2024;14:00;7
30.06.2024;13:00;6
30.06.2024;12:00;5
30.06.2024;11:00;5
30.06.2024;10:00;4
30.06.2024;09:00;4
30.06.2024;08:00;5
30.06.2024;07:00;7
30.06.2024;06:00;6
30.06.2024;05:00;13
30.06.2024;04:00;10
30.06.2024;03:00;4
30.06.2024;02:00;6
30.06.2024;01:00;9
30.06.2024;00:00;6
29.06.2024;23:00;6
29.06.2024;22:00;8
29.06.2024;21:00;13
29.06.2024;20:00;11
29.06.2024;19:00;5
29.06.2024;18:00;5
29.06.2024;17:00;5
29.06.2024;16:00;5
29.06.2024;15:00;6
29.06.2024;14:00;7
29.06.2024;13:00;7
29.06.2024;12:00;5
29.06.2024;11:00;4
29.06.2024;10:00;6
29.06.2024;09:00;12
29.06.2024;08:00;13
29.06.2024;07:00;18
29.06.2024;06:00;25
29.06.2024;05:00;30
29.06.2024;04:00;29
29.06.2024;03:00;32
29.06.2024;02:00;33
29.06.2024;01:00;35
29.06.2024;00:00;48
28.06.2024;23:00;48
28.06.2024;22:00;68
28.06.2024;21:00;32
28.06.2024;20:00;16
28.06.2024;19:00;10
28.06.2024;18:00;6
28.06.2024;17:00;6
